TimeEDT,TemperatureF,Dew PointF,Humidity,Sea Level PressureIn,VisibilityMPH,Wind Direction,Wind SpeedMPH,Gust SpeedMPH,PrecipitationIn,Events,Conditions,WindDirDegrees,DateUTC
12:53 AM,21.0,5.0,50,29.75,10.0,Variable,6.9,-,N/A,,Overcast,0,2013-03-15 04:53:00
1:53 AM,21.0,5.0,50,29.76,10.0,NNW,8.1,17.3,N/A,,Overcast,330,2013-03-15 05:53:00
2:53 AM,21.0,3.9,48,29.76,10.0,WNW,10.4,-,N/A,,Overcast,300,2013-03-15 06:53:00
3:53 AM,19.9,1.9,46,29.76,10.0,NW,11.5,27.6,N/A,,Overcast,310,2013-03-15 07:53:00
4:53 AM,18.0,1.9,50,29.77,10.0,NW,8.1,-,N/A,,Clear,310,2013-03-15 08:53:00
5:53 AM,18.0,1.9,50,29.79,10.0,NW,8.1,-,N/A,,Clear,320,2013-03-15 09:53:00
6:53 AM,17.1,1.9,52,29.80,10.0,Variable,3.5,-,N/A,,Clear,0,2013-03-15 10:53:00
7:53 AM,19.0,1.9,47,29.80,10.0,Variable,6.9,-,N/A,,Clear,0,2013-03-15 11:53:00
8:53 AM,19.9,1.9,46,29.80,10.0,Variable,6.9,18.4,N/A,,Clear,0,2013-03-15 12:53:00
9:53 AM,23.0,1.9,40,29.78,10.0,NNW,8.1,-,N/A,,Clear,330,2013-03-15 13:53:00
10:53 AM,26.1,3.0,37,29.77,10.0,Variable,5.8,-,N/A,,Clear,0,2013-03-15 14:53:00
11:53 AM,28.9,6.1,38,29.74,10.0,Variable,3.5,-,N/A,,Clear,0,2013-03-15 15:53:00
12:53 PM,32.0,6.1,34,29.72,10.0,NW,9.2,-,N/A,,Clear,310,2013-03-15 16:53:00
1:53 PM,33.1,6.1,32,29.68,10.0,Variable,4.6,-,N/A,,Clear,0,2013-03-15 17:53:00
2:53 PM,34.0,6.1,31,29.65,10.0,Variable,4.6,-,N/A,,Clear,0,2013-03-15 18:53:00
3:53 PM,34.0,3.0,27,29.64,10.0,Variable,5.8,-,N/A,,Mostly Cloudy,0,2013-03-15 19:53:00
4:53 PM,35.1,3.0,26,29.62,10.0,Variable,4.6,-,N/A,,Partly Cloudy,0,2013-03-15 20:53:00
5:53 PM,33.1,7.0,34,29.62,10.0,SSW,4.6,-,N/A,,Partly Cloudy,210,2013-03-15 21:53:00
6:53 PM,30.9,12.9,47,29.63,10.0,Calm,Calm,-,N/A,,Overcast,0,2013-03-15 22:53:00
7:53 PM,28.0,15.1,58,29.63,10.0,Calm,Calm,-,N/A,,Mostly Cloudy,0,2013-03-15 23:53:00
8:53 PM,26.1,15.1,63,29.63,10.0,Calm,Calm,-,N/A,,Clear,0,2013-03-16 00:53:00
9:53 PM,25.0,16.0,69,29.62,10.0,Calm,Calm,-,N/A,,Clear,0,2013-03-16 01:53:00
10:53 PM,23.0,16.0,74,29.62,10.0,Calm,Calm,-,N/A,,Clear,0,2013-03-16 02:53:00
11:53 PM,21.9,16.0,78,29.63,10.0,Calm,Calm,-,N/A,,Partly Cloudy,0,2013-03-16 03:53:00